This demonstration page uses our WeatherBlox Daily Observations layout. Learn more.

Left ArrowRight Arrow

44.8408, -93.29828

Hourly Observations for September 23, 2018

Temp ( °F °C ) Dew Point ( °F °C ) Humidity (%) Winds ( mph kmh ) Pressure ( in mb ) Visibility ( mi km ) Precip ( " mm )
12:53 am 00:53 Partly Cloudy 59 15 47 8.3 64 64 S 8 13 30.06 1018 10 16 0.00 0.00
1:53 am 01:53 Partly Cloudy 58 14.4 48 8.9 70 70 S 5 7 30.06 1018 10 16 0.00 0.00
2:53 am 02:53 Mostly Clear 54 12.2 48 8.9 80 80 ESE 6 9 30.06 1018 10 16 0.00 0.00
3:53 am 03:53 Mostly Clear 53 11.7 48 8.9 83 83 SE 5 7 30.05 1018 10 16 0.00 0.00
4:53 am 04:53 Mostly Clear 52 11.1 48 8.9 86 86 SE 5 7 30.05 1018 10 16 0.00 0.00
5:53 am 05:53 Mostly Clear 51 10.6 48 8.9 89 89 SE 7 11 30.05 1018 10 16 0.00 0.00
6:53 am 06:53 Mostly Clear 52 11.1 48 8.9 86 86 SE 7 11 30.06 1018 10 16 0.00 0.00
7:53 am 07:53 Mostly Sunny 53 11.7 49 9.4 86 86 SE 8 13 30.05 1018 10 16 0.00 0.00
8:53 am 08:53 Mostly Sunny 57 13.9 50 10 78 78 S 8 13 30.05 1018 10 16 0.00 0.00
9:53 am 09:53 Mostly Sunny 61 16.1 51 10.6 70 70 SSE 8 13 30.06 1018 10 16 0.00 0.00
10:53 am 10:53 Mostly Sunny 65 18.3 52 11.1 63 63 SE 8 13 30.06 1018 10 16 0.00 0.00
11:53 am 11:53 Partly Cloudy 69 20.6 53 11.7 57 57 S 7 11 30.05 1018 10 16 0.00 0.00
12:53 pm 12:53 Partly Cloudy 72 22.2 53 11.7 52 52 SE 9 15 30.03 1017 10 16 0.00 0.00
1:53 pm 13:53 Partly Cloudy 74 23.3 54 12.2 50 50 SE 15 24 29.99 1016 10 16 0.00 0.00
2:53 pm 14:53 Partly Cloudy 75 23.9 53 11.7 46 46 SSE 17 28 29.97 1015 10 16 0.00 0.00
3:53 pm 15:53 Partly Cloudy 75 23.9 52 11.1 45 45 SE 13 20 29.96 1014 10 16 0.00 0.00
4:53 pm 16:53 Partly Cloudy 75 23.9 52 11.1 45 45 SE 16 26 29.93 1014 10 16 0.00 0.00
5:53 pm 17:53 Partly Cloudy 74 23.3 52 11.1 46 46 SE 9 15 29.93 1014 10 16 0.00 0.00
6:53 pm 18:53 Partly Cloudy 72 22.2 52 11.1 50 50 SE 10 17 29.93 1014 10 16 0.00 0.00
7:53 pm 19:53 Mostly Cloudy 69 20.6 53 11.7 57 57 SE 10 17 29.94 1014 10 16 0.00 0.00
8:53 pm 20:53 Mostly Cloudy 67 19.4 54 12.2 63 63 SE 13 20 29.94 1014 10 16 0.00 0.00
9:53 pm 21:53 Mostly Cloudy 66 18.9 53 11.7 63 63 SE 14 22 29.95 1014 10 16 0.00 0.00
10:53 pm 22:53 Mostly Cloudy 63 17.2 53 11.7 70 70 SE 13 20 29.95 1014 10 16 0.00 0.00
11:53 pm 23:53 Cloudy 62 16.7 53 11.7 73 73 SSE 14 22 29.95 1014 10 16 0.00 0.00

Powered by AerisWeather